Time,TemperatureF,DewpointF,PressureIn,WindDirection,WindDirectionDegrees,WindSpeedMPH,WindSpeedGustMPH,Humidity,HourlyPrecipIn,Conditions,Clouds,dailyrainin,SoftwareType,DateUTC
2013-06-23 00:01:00,65.5,58.1,30.16,West,275,1.0,8.0,77,0.00,,,0.00,VWS V14.01,2013-06-23 04:01:00,
2013-06-23 00:06:00,65.3,57.9,30.16,West,264,3.0,4.0,77,0.00,,,0.00,VWS V14.01,2013-06-23 04:06:00,
2013-06-23 00:11:00,65.3,58.3,30.16,WNW,291,1.0,5.0,78,0.00,,,0.00,VWS V14.01,2013-06-23 04:11:00,
2013-06-23 00:16:00,65.3,57.9,30.16,West,263,3.0,5.0,77,0.00,,,0.00,VWS V14.01,2013-06-23 04:16:00,
2013-06-23 00:21:00,65.4,58.4,30.16,WSW,257,0.0,5.0,78,0.00,,,0.00,VWS V14.01,2013-06-23 04:21:00,
2013-06-23 00:26:00,65.4,58.0,30.16,West,262,5.0,5.0,77,0.00,,,0.00,VWS V14.01,2013-06-23 04:26:00,
2013-06-23 00:31:00,65.4,58.0,30.17,NW,309,0.0,6.0,77,0.00,,,0.00,VWS V14.01,2013-06-23 04:31:00,
2013-06-23 00:36:00,65.5,58.1,30.16,WSW,254,1.0,7.0,77,0.00,,,0.00,VWS V14.01,2013-06-23 04:36:00,
2013-06-23 00:41:00,65.5,58.1,30.16,WSW,242,0.0,7.0,77,0.00,,,0.00,VWS V14.01,2013-06-23 04:41:00,
2013-06-23 00:46:00,65.4,58.0,30.16,WSW,243,3.0,7.0,77,0.00,,,0.00,VWS V14.01,2013-06-23 04:46:00,
2013-06-23 00:51:00,65.5,57.7,30.16,SW,215,2.0,7.0,76,0.00,,,0.00,VWS V14.01,2013-06-23 04:51:00,
2013-06-23 00:56:00,65.6,57.8,30.16,SW,231,0.0,7.0,76,0.00,,,0.00,VWS V14.01,2013-06-23 04:56:00,
2013-06-23 01:01:00,65.6,57.5,30.16,West,271,3.0,7.0,75,0.00,,,0.00,VWS V14.01,2013-06-23 05:01:00,
2013-06-23 01:06:00,65.7,57.2,30.16,WSW,257,1.0,5.0,74,0.00,,,0.00,VWS V14.01,2013-06-23 05:06:00,
2013-06-23 01:11:00,65.7,57.2,30.16,West,269,4.0,10.0,74,0.00,,,0.00,VWS V14.01,2013-06-23 05:11:00,
2013-06-23 01:16:00,65.7,57.2,30.16,WSW,243,0.0,10.0,74,0.00,,,0.00,VWS V14.01,2013-06-23 05:16:00,
2013-06-23 01:21:00,65.7,57.2,30.16,WSW,240,4.0,10.0,74,0.00,,,0.00,VWS V14.01,2013-06-23 05:21:00,
2013-06-23 01:26:00,65.7,57.2,30.16,WSW,254,0.0,10.0,74,0.00,,,0.00,VWS V14.01,2013-06-23 05:26:00,
2013-06-23 01:31:00,65.7,57.2,30.16,WSW,246,1.0,10.0,74,0.00,,,0.00,VWS V14.01,2013-06-23 05:31:00,
2013-06-23 01:36:00,65.8,56.9,30.16,WSW,244,2.0,6.0,73,0.00,,,0.00,VWS V14.01,2013-06-23 05:36:00,
2013-06-23 01:41:00,65.8,56.9,30.16,West,259,2.0,9.0,73,0.00,,,0.00,VWS V14.01,2013-06-23 05:41:00,
2013-06-23 01:46:00,65.9,57.0,30.16,West,273,8.0,9.0,73,0.00,,,0.00,VWS V14.01,2013-06-23 05:46:00,
2013-06-23 01:51:00,65.9,56.6,30.16,West,273,3.0,9.0,72,0.00,,,0.00,VWS V14.01,2013-06-23 05:51:00,
2013-06-23 01:56:00,65.9,57.0,30.16,WSW,257,2.0,9.0,73,0.00,,,0.00,VWS V14.01,2013-06-23 05:56:00,
2013-06-23 02:01:00,65.9,56.6,30.15,WSW,244,0.0,9.0,72,0.00,,,0.00,VWS V14.01,2013-06-23 06:01:00,
2013-06-23 02:06:00,65.9,56.6,30.15,West,269,0.0,5.0,72,0.00,,,0.00,VWS V14.01,2013-06-23 06:06:00,
2013-06-23 02:11:00,65.9,56.6,30.15,SW,236,4.0,8.0,72,0.00,,,0.00,VWS V14.01,2013-06-23 06:11:00,
2013-06-23 02:16:00,65.9,57.0,30.15,West,280,5.0,8.0,73,0.00,,,0.00,VWS V14.01,2013-06-23 06:16:00,
2013-06-23 02:21:00,65.8,56.5,30.15,SW,214,2.0,8.0,72,0.00,,,0.00,VWS V14.01,2013-06-23 06:21:00,
2013-06-23 02:26:00,65.8,56.9,30.14,West,262,2.0,8.0,73,0.00,,,0.00,VWS V14.01,2013-06-23 06:26:00,
2013-06-23 02:31:00,65.7,56.4,30.14,WSW,248,2.0,8.0,72,0.00,,,0.00,VWS V14.01,2013-06-23 06:31:00,
2013-06-23 02:36:00,65.6,56.3,30.14,SW,229,0.0,1.0,72,0.00,,,0.00,VWS V14.01,2013-06-23 06:36:00,
2013-06-23 02:41:00,65.6,56.7,30.14,WNW,290,0.0,2.0,73,0.00,,,0.00,VWS V14.01,2013-06-23 06:41:00,
2013-06-23 02:46:00,65.5,56.6,30.14,WNW,286,0.0,5.0,73,0.00,,,0.00,VWS V14.01,2013-06-23 06:46:00,
2013-06-23 02:51:00,65.5,56.6,30.14,WSW,251,2.0,6.0,73,0.00,,,0.00,VWS V14.01,2013-06-23 06:51:00,
2013-06-23 02:56:00,65.5,56.6,30.13,West,279,1.0,7.0,73,0.00,,,0.00,VWS V14.01,2013-06-23 06:56:00,
2013-06-23 03:01:00,65.3,56.8,30.13,West,266,1.0,7.0,74,0.00,,,0.00,VWS V14.01,2013-06-23 07:01:00,
2013-06-23 03:06:00,65.1,57.0,30.13,WNW,296,2.0,4.0,75,0.00,,,0.00,VWS V14.01,2013-06-23 07:06:00,
2013-06-23 03:11:00,64.9,56.8,30.13,West,278,1.0,5.0,75,0.00,,,0.00,VWS V14.01,2013-06-23 07:11:00,
2013-06-23 03:16:00,64.6,56.9,30.13,WSW,257,0.0,5.0,76,0.00,,,0.00,VWS V14.01,2013-06-23 07:16:00,
2013-06-23 03:21:00,64.5,57.1,30.12,West,275,0.0,5.0,77,0.00,,,0.00,VWS V14.01,2013-06-23 07:21:00,
2013-06-23 03:26:00,64.4,57.0,30.12,West,275,0.0,5.0,77,0.00,,,0.00,VWS V14.01,2013-06-23 07:26:00,
2013-06-23 03:31:00,64.3,57.0,30.12,West,263,2.0,5.0,77,0.00,,,0.00,VWS V14.01,2013-06-23 07:31:00,
2013-06-23 03:35:00,64.0,57.0,30.12,West,264,2.0,4.0,78,0.00,,,0.00,VWS V14.01,2013-06-23 07:35:00,
2013-06-23 03:40:00,63.7,57.1,30.12,West,264,1.0,4.0,79,0.00,,,0.00,VWS V14.01,2013-06-23 07:40:00,
2013-06-23 03:45:00,63.6,57.0,30.12,WSW,252,2.0,6.0,79,0.00,,,0.00,VWS V14.01,2013-06-23 07:45:00,
2013-06-23 03:50:00,63.6,57.0,30.12,WSW,247,0.0,7.0,79,0.00,,,0.00,VWS V14.01,2013-06-23 07:50:00,
2013-06-23 03:55:00,63.8,57.2,30.12,West,277,2.0,7.0,79,0.00,,,0.00,VWS V14.01,2013-06-23 07:55:00,
2013-06-23 04:00:00,63.7,57.1,30.12,NE,54,0.0,7.0,79,0.00,,,0.00,VWS V14.01,2013-06-23 08:00:00,
2013-06-23 04:05:00,63.5,57.2,30.12,West,280,1.0,4.0,80,0.00,,,0.00,VWS V14.01,2013-06-23 08:05:00,
2013-06-23 04:10:00,63.5,56.9,30.12,WNW,283,2.0,4.0,79,0.00,,,0.00,VWS V14.01,2013-06-23 08:10:00,
2013-06-23 04:15:00,63.3,57.0,30.12,West,277,0.0,4.0,80,0.00,,,0.00,VWS V14.01,2013-06-23 08:15:00,
2013-06-23 04:20:00,63.2,56.9,30.12,West,274,1.0,4.0,80,0.00,,,0.00,VWS V14.01,2013-06-23 08:20:00,
2013-06-23 04:25:00,63.2,56.9,30.12,WNW,283,2.0,6.0,80,0.00,,,0.00,VWS V14.01,2013-06-23 08:25:00,
2013-06-23 04:30:00,62.9,56.6,30.13,West,281,1.0,6.0,80,0.00,,,0.00,VWS V14.01,2013-06-23 08:30:00,
2013-06-23 04:35:00,62.8,56.9,30.13,WSW,251,0.0,3.0,81,0.00,,,0.00,VWS V14.01,2013-06-23 08:35:00,
2013-06-23 04:40:00,62.7,56.8,30.12,West,277,2.0,3.0,81,0.00,,,0.00,VWS V14.01,2013-06-23 08:40:00,
2013-06-23 04:45:00,62.7,56.8,30.12,WSW,250,0.0,4.0,81,0.00,,,0.00,VWS V14.01,2013-06-23 08:45:00,
2013-06-23 04:50:00,62.6,56.7,30.12,West,259,2.0,5.0,81,0.00,,,0.00,VWS V14.01,2013-06-23 08:50:00,
2013-06-23 04:55:00,62.5,56.9,30.12,WSW,242,2.0,5.0,82,0.00,,,0.00,VWS V14.01,2013-06-23 08:55:00,
2013-06-23 05:00:00,62.3,56.7,30.13,West,259,3.0,5.0,82,0.00,,,0.00,VWS V14.01,2013-06-23 09:00:00,
2013-06-23 05:05:00,62.3,56.7,30.12,West,273,1.0,5.0,82,0.00,,,0.00,VWS V14.01,2013-06-23 09:05:00,
2013-06-23 05:10:00,62.3,56.7,30.12,WNW,286,2.0,6.0,82,0.00,,,0.00,VWS V14.01,2013-06-23 09:10:00,
2013-06-23 05:15:00,62.3,56.7,30.12,WSW,241,0.0,6.0,82,0.00,,,0.00,VWS V14.01,2013-06-23 09:15:00,
2013-06-23 05:20:00,62.2,56.6,30.12,West,260,3.0,6.0,82,0.00,,,0.00,VWS V14.01,2013-06-23 09:20:00,
2013-06-23 05:25:00,62.2,56.6,30.12,WSW,243,2.0,6.0,82,0.00,,,0.00,VWS V14.01,2013-06-23 09:25:00,
2013-06-23 05:30:00,62.2,57.0,30.12,WNW,282,0.0,6.0,83,0.00,,,0.00,VWS V14.01,2013-06-23 09:30:00,
2013-06-23 05:35:00,62.4,56.8,30.12,West,279,4.0,8.0,82,0.00,,,0.00,VWS V14.01,2013-06-23 09:35:00,
2013-06-23 05:40:00,62.6,57.4,30.12,West,281,4.0,8.0,83,0.00,,,0.00,VWS V14.01,2013-06-23 09:40:00,
2013-06-23 05:45:00,62.7,57.5,30.12,West,277,3.0,10.0,83,0.00,,,0.00,VWS V14.01,2013-06-23 09:45:00,
2013-06-23 05:50:00,62.8,57.6,30.12,WNW,291,1.0,10.0,83,0.00,,,0.00,VWS V14.01,2013-06-23 09:50:00,
2013-06-23 05:55:00,63.1,57.9,30.12,WNW,296,0.0,10.0,83,0.00,,,0.00,VWS V14.01,2013-06-23 09:55:00,
2013-06-23 06:00:00,63.3,58.1,30.13,West,281,1.0,10.0,83,0.00,,,0.00,VWS V14.01,2013-06-23 10:00:00,
2013-06-23 06:05:00,63.5,58.2,30.12,WNW,285,2.0,5.0,83,0.00,,,0.00,VWS V14.01,2013-06-23 10:05:00,
2013-06-23 06:10:00,63.8,58.2,30.12,West,281,3.0,6.0,82,0.00,,,0.00,VWS V14.01,2013-06-23 10:10:00,
2013-06-23 06:15:00,63.9,58.3,30.12,NW,306,3.0,6.0,82,0.00,,,0.00,VWS V14.01,2013-06-23 10:15:00,
2013-06-23 06:20:00,63.9,58.6,30.12,WSW,241,3.0,6.0,83,0.00,,,0.00,VWS V14.01,2013-06-23 10:20:00,
2013-06-23 06:25:00,63.9,58.6,30.12,West,279,2.0,6.0,83,0.00,,,0.00,VWS V14.01,2013-06-23 10:25:00,
2013-06-23 06:30:00,64.1,58.8,30.12,NW,306,2.0,6.0,83,0.00,,,0.00,VWS V14.01,2013-06-23 10:30:00,
2013-06-23 06:35:00,64.3,59.0,30.12,WNW,288,1.0,4.0,83,0.00,,,0.00,VWS V14.01,2013-06-23 10:35:00,
2013-06-23 06:40:00,64.7,59.1,30.13,NW,312,3.0,7.0,82,0.00,,,0.00,VWS V14.01,2013-06-23 10:40:00,
2013-06-23 06:45:00,64.9,59.6,30.13,WSW,242,2.0,7.0,83,0.00,,,0.00,VWS V14.01,2013-06-23 10:45:00,
2013-06-23 06:50:00,65.2,59.9,30.13,WSW,251,4.0,7.0,83,0.00,,,0.00,VWS V14.01,2013-06-23 10:50:00,
2013-06-23 06:55:00,65.4,59.8,30.13,West,261,3.0,8.0,82,0.00,,,0.00,VWS V14.01,2013-06-23 10:55:00,
2013-06-23 07:00:00,65.5,60.2,30.13,West,259,4.0,8.0,83,0.00,,,0.00,VWS V14.01,2013-06-23 11:00:00,
2013-06-23 07:05:00,65.8,60.5,30.13,West,271,1.0,5.0,83,0.00,,,0.00,VWS V14.01,2013-06-23 11:05:00,
2013-06-23 07:10:00,66.1,60.8,30.13,WNW,288,1.0,6.0,83,0.00,,,0.00,VWS V14.01,2013-06-23 11:10:00,
2013-06-23 07:15:00,66.5,60.8,30.13,SSW,202,0.0,6.0,82,0.00,,,0.00,VWS V14.01,2013-06-23 11:15:00,
2013-06-23 07:20:00,66.8,61.1,30.14,SW,230,6.0,6.0,82,0.00,,,0.00,VWS V14.01,2013-06-23 11:20:00,
2013-06-23 07:25:00,66.8,61.1,30.14,West,279,2.0,10.0,82,0.00,,,0.00,VWS V14.01,2013-06-23 11:25:00,
2013-06-23 07:30:00,66.7,61.0,30.14,West,269,2.0,10.0,82,0.00,,,0.00,VWS V14.01,2013-06-23 11:30:00,
2013-06-23 07:35:00,66.6,61.3,30.14,West,271,1.0,4.0,83,0.00,,,0.00,VWS V14.01,2013-06-23 11:35:00,
2013-06-23 07:40:00,66.7,61.4,30.14,WNW,287,2.0,8.0,83,0.00,,,0.00,VWS V14.01,2013-06-23 11:40:00,
2013-06-23 07:45:00,66.8,61.5,30.15,West,259,1.0,8.0,83,0.00,,,0.00,VWS V14.01,2013-06-23 11:45:00,
2013-06-23 07:50:00,67.0,61.7,30.15,West,265,2.0,8.0,83,0.00,,,0.00,VWS V14.01,2013-06-23 11:50:00,
2013-06-23 07:55:00,67.0,61.7,30.15,NW,325,3.0,8.0,83,0.00,,,0.00,VWS V14.01,2013-06-23 11:55:00,
2013-06-23 08:00:00,67.0,61.7,30.15,West,266,2.0,8.0,83,0.00,,,0.00,VWS V14.01,2013-06-23 12:00:00,
2013-06-23 08:05:00,67.4,62.4,30.15,NW,307,1.0,7.0,84,0.00,,,0.00,VWS V14.01,2013-06-23 12:05:00,
2013-06-23 08:10:00,68.0,62.3,30.14,West,267,2.0,7.0,82,0.00,,,0.00,VWS V14.01,2013-06-23 12:10:00,
2013-06-23 08:15:00,68.3,62.6,30.14,West,276,3.0,7.0,82,0.00,,,0.00,VWS V14.01,2013-06-23 12:15:00,
2013-06-23 08:20:00,68.3,62.6,30.14,West,281,5.0,8.0,82,0.00,,,0.00,VWS V14.01,2013-06-23 12:20:00,
2013-06-23 08:25:00,68.5,62.8,30.14,West,275,2.0,8.0,82,0.00,,,0.00,VWS V14.01,2013-06-23 12:25:00,
2013-06-23 08:30:00,69.4,63.7,30.14,West,272,2.0,8.0,82,0.00,,,0.00,VWS V14.01,2013-06-23 12:30:00,
2013-06-23 08:35:00,70.6,64.5,30.14,West,261,1.0,5.0,81,0.00,,,0.00,VWS V14.01,2013-06-23 12:35:00,
2013-06-23 08:40:00,71.6,64.4,30.14,West,273,4.0,8.0,78,0.00,,,0.00,VWS V14.01,2013-06-23 12:40:00,
2013-06-23 08:45:00,71.9,65.0,30.14,WSW,249,3.0,8.0,79,0.00,,,0.00,VWS V14.01,2013-06-23 12:45:00,
2013-06-23 08:50:00,71.8,64.6,30.14,West,277,7.0,9.0,78,0.00,,,0.00,VWS V14.01,2013-06-23 12:50:00,
2013-06-23 08:55:00,72.0,65.1,30.14,WSW,249,5.0,9.0,79,0.00,,,0.00,VWS V14.01,2013-06-23 12:55:00,
2013-06-23 09:00:00,72.4,65.2,30.14,West,266,6.0,9.0,78,0.00,,,0.00,VWS V14.01,2013-06-23 13:00:00,
2013-06-23 09:05:00,72.5,64.9,30.14,West,267,2.0,7.0,77,0.00,,,0.00,VWS V14.01,2013-06-23 13:05:00,
2013-06-23 09:10:00,72.7,65.1,30.13,WNW,299,4.0,11.0,77,0.00,,,0.00,VWS V14.01,2013-06-23 13:10:00,
2013-06-23 09:15:00,73.2,65.6,30.14,WSW,247,0.0,11.0,77,0.00,,,0.00,VWS V14.01,2013-06-23 13:15:00,
2013-06-23 09:20:00,73.7,66.1,30.14,West,277,5.0,11.0,77,0.00,,,0.00,VWS V14.01,2013-06-23 13:20:00,
2013-06-23 09:25:00,74.2,66.2,30.14,WSW,245,2.0,11.0,76,0.00,,,0.00,VWS V14.01,2013-06-23 13:25:00,
2013-06-23 09:30:00,74.5,66.1,30.13,WSW,238,3.0,11.0,75,0.00,,,0.00,VWS V14.01,2013-06-23 13:30:00,
2013-06-23 09:35:00,74.9,66.1,30.13,WNW,287,1.0,5.0,74,0.00,,,0.00,VWS V14.01,2013-06-23 13:35:00,
2013-06-23 09:40:00,75.2,66.7,30.13,West,271,2.0,7.0,75,0.00,,,0.00,VWS V14.01,2013-06-23 13:40:00,
2013-06-23 09:45:00,75.8,66.9,30.13,NNW,342,0.0,7.0,74,0.00,,,0.00,VWS V14.01,2013-06-23 13:45:00,
2013-06-23 09:50:00,76.8,67.9,30.13,WNW,298,3.0,9.0,74,0.00,,,0.00,VWS V14.01,2013-06-23 13:50:00,
2013-06-23 09:55:00,76.5,67.2,30.13,WSW,257,5.0,9.0,73,0.00,,,0.00,VWS V14.01,2013-06-23 13:55:00,
2013-06-23 10:00:00,76.6,67.3,30.13,WSW,258,1.0,9.0,73,0.00,,,0.00,VWS V14.01,2013-06-23 14:00:00,
2013-06-23 10:05:00,76.8,68.3,30.13,West,261,5.0,6.0,75,0.00,,,0.00,VWS V14.01,2013-06-23 14:05:00,
2013-06-23 10:10:00,76.8,67.9,30.12,SE,144,0.0,6.0,74,0.00,,,0.00,VWS V14.01,2013-06-23 14:10:00,
2013-06-23 10:15:00,77.6,68.3,30.12,West,260,1.0,7.0,73,0.00,,,0.00,VWS V14.01,2013-06-23 14:15:00,
2013-06-23 10:20:00,77.8,68.5,30.12,West,279,1.0,7.0,73,0.00,,,0.00,VWS V14.01,2013-06-23 14:20:00,
2013-06-23 10:25:00,78.2,68.0,30.12,WNW,289,4.0,7.0,71,0.00,,,0.00,VWS V14.01,2013-06-23 14:25:00,
2013-06-23 10:30:00,78.0,68.2,30.12,West,267,5.0,7.0,72,0.00,,,0.00,VWS V14.01,2013-06-23 14:30:00,
2013-06-23 10:35:00,78.6,69.2,30.12,West,268,5.0,6.0,73,0.00,,,0.00,VWS V14.01,2013-06-23 14:35:00,
2013-06-23 10:40:00,79.6,70.2,30.12,West,262,0.0,8.0,73,0.00,,,0.00,VWS V14.01,2013-06-23 14:40:00,
2013-06-23 10:45:00,80.0,69.3,30.12,WNW,286,0.0,8.0,70,0.00,,,0.00,VWS V14.01,2013-06-23 14:45:00,
2013-06-23 10:50:00,79.9,69.2,30.11,South,184,0.0,8.0,70,0.00,,,0.00,VWS V14.01,2013-06-23 14:50:00,
2013-06-23 10:55:00,80.2,69.9,30.11,WSW,254,3.0,8.0,71,0.00,,,0.00,VWS V14.01,2013-06-23 14:55:00,
2013-06-23 11:00:00,80.6,69.9,30.11,West,264,5.0,8.0,70,0.00,,,0.00,VWS V14.01,2013-06-23 15:00:00,
2013-06-23 11:05:00,80.7,70.8,30.11,WNW,294,1.0,3.0,72,0.00,,,0.00,VWS V14.01,2013-06-23 15:05:00,
2013-06-23 11:10:00,81.4,69.8,30.11,East,79,0.0,4.0,68,0.00,,,0.00,VWS V14.01,2013-06-23 15:10:00,
2013-06-23 11:15:00,81.4,69.8,30.11,WSW,252,1.0,4.0,68,0.00,,,0.00,VWS V14.01,2013-06-23 15:15:00,
2013-06-23 11:20:00,81.8,70.2,30.11,West,277,3.0,8.0,68,0.00,,,0.00,VWS V14.01,2013-06-23 15:20:00,
2013-06-23 11:25:00,81.8,69.8,30.11,West,261,1.0,8.0,67,0.00,,,0.00,VWS V14.01,2013-06-23 15:25:00,
2013-06-23 11:30:00,82.0,70.0,30.11,North,9,0.0,8.0,67,0.00,,,0.00,VWS V14.01,2013-06-23 15:30:00,
2013-06-23 11:35:00,81.9,69.9,30.11,SSW,209,0.0,1.0,67,0.00,,,0.00,VWS V14.01,2013-06-23 15:35:00,
2013-06-23 11:40:00,82.7,70.2,30.11,SSW,197,0.0,6.0,66,0.00,,,0.00,VWS V14.01,2013-06-23 15:40:00,
2013-06-23 11:45:00,82.8,70.3,30.11,WNW,299,1.0,6.0,66,0.00,,,0.00,VWS V14.01,2013-06-23 15:45:00,
2013-06-23 11:50:00,83.2,71.1,30.11,WNW,289,0.0,6.0,67,0.00,,,0.00,VWS V14.01,2013-06-23 15:50:00,
2013-06-23 11:55:00,83.2,70.7,30.10,WNW,293,0.0,6.0,66,0.00,,,0.00,VWS V14.01,2013-06-23 15:55:00,
2013-06-23 12:00:00,83.1,71.4,30.10,South,186,2.0,6.0,68,0.00,,,0.00,VWS V14.01,2013-06-23 16:00:00,
2013-06-23 12:05:00,82.8,70.3,30.10,South,188,3.0,3.0,66,0.00,,,0.00,VWS V14.01,2013-06-23 16:05:00,
2013-06-23 12:10:00,83.0,69.1,30.10,NW,325,0.0,7.0,63,0.00,,,0.00,VWS V14.01,2013-06-23 16:10:00,
2013-06-23 12:15:00,83.4,70.9,30.10,ENE,67,1.0,7.0,66,0.00,,,0.00,VWS V14.01,2013-06-23 16:15:00,
2013-06-23 12:20:00,84.0,71.4,30.10,NW,307,0.0,7.0,66,0.00,,,0.00,VWS V14.01,2013-06-23 16:20:00,
2013-06-23 12:25:00,84.1,71.1,30.10,NNE,26,0.0,9.0,65,0.00,,,0.00,VWS V14.01,2013-06-23 16:25:00,
2013-06-23 12:30:00,83.9,71.3,30.10,SSW,201,2.0,9.0,66,0.00,,,0.00,VWS V14.01,2013-06-23 16:30:00,
2013-06-23 12:35:00,84.4,71.4,30.10,SSE,150,2.0,2.0,65,0.00,,,0.00,VWS V14.01,2013-06-23 16:35:00,
2013-06-23 12:40:00,84.0,70.5,30.10,SE,143,2.0,2.0,64,0.00,,,0.00,VWS V14.01,2013-06-23 16:40:00,
2013-06-23 12:45:00,83.8,71.2,30.09,WSW,242,1.0,4.0,66,0.00,,,0.00,VWS V14.01,2013-06-23 16:45:00,
2013-06-23 12:50:00,84.8,71.7,30.09,SE,144,1.0,5.0,65,0.00,,,0.00,VWS V14.01,2013-06-23 16:50:00,
2013-06-23 12:55:00,84.0,71.0,30.09,East,94,1.0,6.0,65,0.00,,,0.00,VWS V14.01,2013-06-23 16:55:00,
2013-06-23 12:57:00,83.8,71.7,30.09,South,178,1.0,6.0,67,0.00,,,0.00,VWS V14.01,2013-06-23 16:57:00,
2013-06-23 13:02:00,84.1,72.8,30.09,SE,137,4.0,6.0,69,0.00,,,0.00,VWS V14.01,2013-06-23 17:02:00,
2013-06-23 13:07:00,84.3,71.7,30.09,SE,138,0.0,4.0,66,0.00,,,0.00,VWS V14.01,2013-06-23 17:07:00,
2013-06-23 13:12:00,84.5,71.0,30.09,ENE,67,3.0,6.0,64,0.00,,,0.00,VWS V14.01,2013-06-23 17:12:00,
2013-06-23 13:17:00,84.3,71.7,30.09,SSE,147,1.0,6.0,66,0.00,,,0.00,VWS V14.01,2013-06-23 17:17:00,
2013-06-23 13:22:00,84.4,71.4,30.09,WNW,301,3.0,6.0,65,0.00,,,0.00,VWS V14.01,2013-06-23 17:22:00,
2013-06-23 13:27:00,84.4,70.9,30.08,NW,319,2.0,8.0,64,0.00,,,0.00,VWS V14.01,2013-06-23 17:27:00,
2013-06-23 13:32:00,84.6,72.0,30.08,North,351,0.0,8.0,66,0.00,,,0.00,VWS V14.01,2013-06-23 17:32:00,
2013-06-23 13:37:00,84.5,71.0,30.08,ESE,114,3.0,4.0,64,0.00,,,0.00,VWS V14.01,2013-06-23 17:37:00,
2013-06-23 13:42:00,85.0,70.5,30.08,SSW,196,2.0,4.0,62,0.00,,,0.00,VWS V14.01,2013-06-23 17:42:00,
2013-06-23 13:47:00,85.0,70.5,30.07,SE,140,1.0,5.0,62,0.00,,,0.00,VWS V14.01,2013-06-23 17:47:00,
2013-06-23 13:52:00,85.2,71.7,30.07,SSW,209,3.0,5.0,64,0.00,,,0.00,VWS V14.01,2013-06-23 17:52:00,
2013-06-23 13:57:00,85.5,71.5,30.07,WNW,284,2.0,7.0,63,0.00,,,0.00,VWS V14.01,2013-06-23 17:57:00,
2013-06-23 14:02:00,86.3,73.2,30.07,West,259,7.0,8.0,65,0.00,,,0.00,VWS V14.01,2013-06-23 18:02:00,
2013-06-23 14:07:00,86.5,71.9,30.07,NNW,329,0.0,5.0,62,0.00,,,0.00,VWS V14.01,2013-06-23 18:07:00,
2013-06-23 14:12:00,86.6,72.0,30.07,ESE,102,2.0,5.0,62,0.00,,,0.00,VWS V14.01,2013-06-23 18:12:00,
2013-06-23 14:17:00,85.9,71.8,30.06,SSE,157,2.0,7.0,63,0.00,,,0.00,VWS V14.01,2013-06-23 18:17:00,
2013-06-23 14:22:00,86.2,72.6,30.06,East,85,1.0,7.0,64,0.00,,,0.00,VWS V14.01,2013-06-23 18:22:00,
2013-06-23 14:27:00,85.7,71.7,30.06,SSW,211,0.0,7.0,63,0.00,,,0.00,VWS V14.01,2013-06-23 18:27:00,
2013-06-23 14:32:00,85.5,71.5,30.06,WNW,282,0.0,7.0,63,0.00,,,0.00,VWS V14.01,2013-06-23 18:32:00,
2013-06-23 14:37:00,85.2,71.7,30.06,North,355,0.0,5.0,64,0.00,,,0.00,VWS V14.01,2013-06-23 18:37:00,
2013-06-23 14:42:00,85.2,71.7,30.06,WNW,303,4.0,5.0,64,0.00,,,0.00,VWS V14.01,2013-06-23 18:42:00,
2013-06-23 14:47:00,86.0,73.3,30.05,WSW,248,2.0,5.0,66,0.00,,,0.00,VWS V14.01,2013-06-23 18:47:00,
2013-06-23 14:52:00,86.2,71.2,30.05,SW,230,3.0,6.0,61,0.00,,,0.00,VWS V14.01,2013-06-23 18:52:00,
2013-06-23 14:57:00,86.3,70.8,30.05,SE,138,3.0,7.0,60,0.00,,,0.00,VWS V14.01,2013-06-23 18:57:00,
2013-06-23 15:02:00,86.0,71.0,30.05,WSW,246,4.0,7.0,61,0.00,,,0.00,VWS V14.01,2013-06-23 19:02:00,
2013-06-23 15:07:00,85.6,70.1,30.05,SSE,164,3.0,4.0,60,0.00,,,0.00,VWS V14.01,2013-06-23 19:07:00,
2013-06-23 15:12:00,85.2,70.7,30.05,WSW,240,3.0,4.0,62,0.00,,,0.00,VWS V14.01,2013-06-23 19:12:00,
2013-06-23 15:17:00,86.1,71.1,30.04,South,190,0.0,5.0,61,0.00,,,0.00,VWS V14.01,2013-06-23 19:17:00,
2013-06-23 15:22:00,86.1,69.6,30.04,NE,43,4.0,8.0,58,0.00,,,0.00,VWS V14.01,2013-06-23 19:22:00,
2013-06-23 15:27:00,85.7,69.7,30.04,SSE,163,2.0,8.0,59,0.00,,,0.00,VWS V14.01,2013-06-23 19:27:00,
2013-06-23 15:32:00,85.5,70.5,30.04,SE,129,2.0,8.0,61,0.00,,,0.00,VWS V14.01,2013-06-23 19:32:00,
2013-06-23 15:37:00,85.6,69.6,30.03,ENE,62,1.0,7.0,59,0.00,,,0.00,VWS V14.01,2013-06-23 19:37:00,
2013-06-23 15:42:00,85.2,69.8,30.03,ENE,67,2.0,7.0,60,0.00,,,0.00,VWS V14.01,2013-06-23 19:42:00,
2013-06-23 15:47:00,85.3,70.8,30.03,SE,144,0.0,9.0,62,0.00,,,0.00,VWS V14.01,2013-06-23 19:47:00,
2013-06-23 15:52:00,85.4,69.9,30.04,WSW,253,0.0,9.0,60,0.00,,,0.00,VWS V14.01,2013-06-23 19:52:00,
2013-06-23 15:57:00,85.2,69.3,30.03,South,178,1.0,9.0,59,0.00,,,0.00,VWS V14.01,2013-06-23 19:57:00,
2013-06-23 16:02:00,85.2,69.3,30.03,East,95,2.0,9.0,59,0.00,,,0.00,VWS V14.01,2013-06-23 20:02:00,
2013-06-23 16:07:00,84.9,69.0,30.03,SSW,207,5.0,8.0,59,0.00,,,0.00,VWS V14.01,2013-06-23 20:07:00,
2013-06-23 16:12:00,84.5,69.1,30.03,SE,146,1.0,8.0,60,0.00,,,0.00,VWS V14.01,2013-06-23 20:12:00,
2013-06-23 16:17:00,84.6,69.2,30.03,South,191,0.0,8.0,60,0.00,,,0.00,VWS V14.01,2013-06-23 20:17:00,
2013-06-23 16:22:00,85.0,69.6,30.03,West,281,3.0,8.0,60,0.00,,,0.00,VWS V14.01,2013-06-23 20:22:00,
2013-06-23 16:27:00,85.0,70.5,30.03,West,275,3.0,8.0,62,0.00,,,0.00,VWS V14.01,2013-06-23 20:27:00,
2013-06-23 16:32:00,85.0,70.5,30.02,ESE,107,0.0,8.0,62,0.00,,,0.00,VWS V14.01,2013-06-23 20:32:00,
2013-06-23 16:37:00,84.5,69.6,30.03,SSW,198,0.0,6.0,61,0.00,,,0.00,VWS V14.01,2013-06-23 20:37:00,
2013-06-23 16:42:00,84.2,69.3,30.02,NW,315,4.0,8.0,61,0.00,,,0.00,VWS V14.01,2013-06-23 20:42:00,
2013-06-23 16:47:00,84.0,69.1,30.02,WNW,296,0.0,8.0,61,0.00,,,0.00,VWS V14.01,2013-06-23 20:47:00,
2013-06-23 16:52:00,83.7,69.3,30.02,WNW,292,0.0,8.0,62,0.00,,,0.00,VWS V14.01,2013-06-23 20:52:00,
2013-06-23 16:57:00,84.1,70.2,30.02,WSW,254,1.0,8.0,63,0.00,,,0.00,VWS V14.01,2013-06-23 20:57:00,
2013-06-23 17:02:00,84.2,70.7,30.02,NNE,33,1.0,8.0,64,0.00,,,0.00,VWS V14.01,2013-06-23 21:02:00,
2013-06-23 17:07:00,83.6,69.7,30.02,SSW,208,3.0,7.0,63,0.00,,,0.00,VWS V14.01,2013-06-23 21:07:00,
2013-06-23 17:12:00,83.2,69.8,30.02,SSE,153,2.0,7.0,64,0.00,,,0.00,VWS V14.01,2013-06-23 21:12:00,
2013-06-23 17:17:00,83.8,70.3,30.02,WNW,288,1.0,7.0,64,0.00,,,0.00,VWS V14.01,2013-06-23 21:17:00,
2013-06-23 17:22:00,83.7,69.3,30.02,WSW,257,3.0,7.0,62,0.00,,,0.00,VWS V14.01,2013-06-23 21:22:00,
2013-06-23 17:27:00,83.3,69.4,30.02,SSE,159,0.0,7.0,63,0.00,,,0.00,VWS V14.01,2013-06-23 21:27:00,
2013-06-23 17:32:00,83.7,68.8,30.02,SE,146,2.0,9.0,61,0.00,,,0.00,VWS V14.01,2013-06-23 21:32:00,
2013-06-23 17:37:00,83.4,68.1,30.02,South,176,1.0,7.0,60,0.00,,,0.00,VWS V14.01,2013-06-23 21:37:00,
2013-06-23 17:42:00,83.0,68.7,30.01,NE,39,2.0,7.0,62,0.00,,,0.00,VWS V14.01,2013-06-23 21:42:00,
2013-06-23 17:47:00,82.9,67.6,30.01,West,273,7.0,10.0,60,0.00,,,0.00,VWS V14.01,2013-06-23 21:47:00,
2013-06-23 17:52:00,82.4,68.1,30.02,West,269,0.0,10.0,62,0.00,,,0.00,VWS V14.01,2013-06-23 21:52:00,
2013-06-23 17:57:00,82.4,68.1,30.02,SSE,163,2.0,10.0,62,0.00,,,0.00,VWS V14.01,2013-06-23 21:57:00,
2013-06-23 18:02:00,82.2,68.4,30.01,WSW,257,3.0,10.0,63,0.00,,,0.00,VWS V14.01,2013-06-23 22:02:00,
2013-06-23 18:07:00,82.0,68.2,30.01,SSW,205,2.0,8.0,63,0.00,,,0.00,VWS V14.01,2013-06-23 22:07:00,
2013-06-23 18:12:00,81.5,67.7,30.01,NE,35,1.0,8.0,63,0.00,,,0.00,VWS V14.01,2013-06-23 22:12:00,
2013-06-23 18:17:00,81.4,67.6,30.01,SW,217,0.0,8.0,63,0.00,,,0.00,VWS V14.01,2013-06-23 22:17:00,
2013-06-23 18:22:00,80.9,68.5,30.02,East,79,0.0,8.0,66,0.00,,,0.00,VWS V14.01,2013-06-23 22:22:00,
2013-06-23 18:27:00,80.5,67.2,30.02,SE,142,3.0,9.0,64,0.00,,,0.00,VWS V14.01,2013-06-23 22:27:00,
2013-06-23 18:32:00,80.1,68.2,30.02,SSW,198,2.0,9.0,67,0.00,,,0.00,VWS V14.01,2013-06-23 22:32:00,
2013-06-23 18:37:00,79.7,67.8,30.02,WSW,244,1.0,3.0,67,0.00,,,0.00,VWS V14.01,2013-06-23 22:37:00,
2013-06-23 18:42:00,79.5,67.6,30.02,WNW,296,0.0,4.0,67,0.00,,,0.00,VWS V14.01,2013-06-23 22:42:00,
2013-06-23 18:47:00,79.1,67.2,30.02,SSW,212,3.0,4.0,67,0.00,,,0.00,VWS V14.01,2013-06-23 22:47:00,
2013-06-23 18:52:00,79.2,67.3,30.02,NNW,344,0.0,5.0,67,0.00,,,0.00,VWS V14.01,2013-06-23 22:52:00,
2013-06-23 18:57:00,79.0,67.6,30.03,NW,306,1.0,5.0,68,0.00,,,0.00,VWS V14.01,2013-06-23 22:57:00,
2013-06-23 19:02:00,78.9,67.9,30.02,WSW,258,1.0,8.0,69,0.00,,,0.00,VWS V14.01,2013-06-23 23:02:00,
2013-06-23 19:07:00,78.4,67.8,30.02,West,269,5.0,5.0,70,0.00,,,0.00,VWS V14.01,2013-06-23 23:07:00,
2013-06-23 19:12:00,78.4,67.8,30.02,NNE,15,0.0,6.0,70,0.00,,,0.00,VWS V14.01,2013-06-23 23:12:00,
2013-06-23 19:17:00,78.4,67.8,30.02,SSE,165,0.0,6.0,70,0.00,,,0.00,VWS V14.01,2013-06-23 23:17:00,
2013-06-23 19:22:00,78.4,67.8,30.02,WSW,250,0.0,9.0,70,0.00,,,0.00,VWS V14.01,2013-06-23 23:22:00,
2013-06-23 19:27:00,78.2,68.0,30.02,NW,319,1.0,9.0,71,0.00,,,0.00,VWS V14.01,2013-06-23 23:27:00,
2013-06-23 19:32:00,77.8,68.1,30.01,WSW,245,0.0,9.0,72,0.00,,,0.00,VWS V14.01,2013-06-23 23:32:00,
2013-06-23 19:37:00,77.6,68.3,30.01,SSW,202,2.0,7.0,73,0.00,,,0.00,VWS V14.01,2013-06-23 23:37:00,
2013-06-23 19:42:00,77.6,68.3,30.01,NW,317,0.0,7.0,73,0.00,,,0.00,VWS V14.01,2013-06-23 23:42:00,
2013-06-23 19:47:00,77.5,68.2,30.02,WNW,296,1.0,7.0,73,0.00,,,0.00,VWS V14.01,2013-06-23 23:47:00,
2013-06-23 19:52:00,77.2,68.3,30.02,WNW,285,0.0,7.0,74,0.00,,,0.00,VWS V14.01,2013-06-23 23:52:00,
2013-06-23 19:57:00,77.0,68.5,30.02,WNW,287,0.0,7.0,75,0.00,,,0.00,VWS V14.01,2013-06-23 23:57:00,
2013-06-23 20:02:00,76.9,68.4,30.02,SSW,207,2.0,7.0,75,0.00,,,0.00,VWS V14.01,2013-06-24 00:02:00,
2013-06-23 20:07:00,76.7,68.6,30.02,ENE,76,1.0,2.0,76,0.00,,,0.00,VWS V14.01,2013-06-24 00:07:00,
2013-06-23 20:12:00,76.6,68.5,30.02,NE,41,0.0,6.0,76,0.00,,,0.00,VWS V14.01,2013-06-24 00:12:00,
2013-06-23 20:17:00,76.6,68.5,30.02,WNW,291,9.0,9.0,76,0.00,,,0.00,VWS V14.01,2013-06-24 00:17:00,
2013-06-23 20:22:00,76.4,68.3,30.02,SSE,160,2.0,9.0,76,0.00,,,0.00,VWS V14.01,2013-06-24 00:22:00,
2013-06-23 20:27:00,76.2,68.5,30.02,WSW,244,1.0,9.0,77,0.00,,,0.00,VWS V14.01,2013-06-24 00:27:00,
2013-06-23 20:32:00,76.1,68.4,30.02,WNW,289,4.0,9.0,77,0.00,,,0.00,VWS V14.01,2013-06-24 00:32:00,
2013-06-23 20:37:00,76.0,68.3,30.02,WSW,254,0.0,5.0,77,0.00,,,0.00,VWS V14.01,2013-06-24 00:37:00,
2013-06-23 20:42:00,75.8,68.5,30.03,NNE,32,0.0,5.0,78,0.00,,,0.00,VWS V14.01,2013-06-24 00:42:00,
2013-06-23 20:47:00,75.6,68.3,30.03,SW,222,5.0,8.0,78,0.00,,,0.00,VWS V14.01,2013-06-24 00:47:00,
2013-06-23 20:52:00,75.5,68.2,30.03,WSW,253,1.0,8.0,78,0.00,,,0.00,VWS V14.01,2013-06-24 00:52:00,
2013-06-23 20:57:00,75.4,68.1,30.03,WSW,254,0.0,8.0,78,0.00,,,0.00,VWS V14.01,2013-06-24 00:57:00,
2013-06-23 21:02:00,75.2,68.2,30.03,WSW,253,3.0,8.0,79,0.00,,,0.00,VWS V14.01,2013-06-24 01:02:00,
2013-06-23 21:07:00,75.1,68.2,30.03,WSW,244,2.0,5.0,79,0.00,,,0.00,VWS V14.01,2013-06-24 01:07:00,
2013-06-23 21:12:00,74.9,67.9,30.04,West,271,2.0,11.0,79,0.00,,,0.00,VWS V14.01,2013-06-24 01:12:00,
2013-06-23 21:17:00,74.8,67.9,30.04,West,271,1.0,12.0,79,0.00,,,0.00,VWS V14.01,2013-06-24 01:17:00,
2013-06-23 21:22:00,74.7,68.1,30.04,West,266,0.0,12.0,80,0.00,,,0.00,VWS V14.01,2013-06-24 01:22:00,
2013-06-23 21:27:00,74.5,67.9,30.05,South,189,0.0,12.0,80,0.00,,,0.00,VWS V14.01,2013-06-24 01:27:00,
2013-06-23 21:32:00,74.4,67.8,30.05,West,273,0.0,12.0,80,0.00,,,0.00,VWS V14.01,2013-06-24 01:32:00,
2013-06-23 21:37:00,74.4,67.8,30.05,NW,315,0.0,5.0,80,0.00,,,0.00,VWS V14.01,2013-06-24 01:37:00,
2013-06-23 21:42:00,74.1,67.9,30.05,SSW,213,1.0,5.0,81,0.00,,,0.00,VWS V14.01,2013-06-24 01:42:00,
2013-06-23 21:47:00,74.0,67.8,30.05,SSW,194,2.0,8.0,81,0.00,,,0.00,VWS V14.01,2013-06-24 01:47:00,
2013-06-23 21:52:00,73.9,68.1,30.05,West,277,0.0,8.0,82,0.00,,,0.00,VWS V14.01,2013-06-24 01:52:00,
2013-06-23 21:57:00,73.7,67.9,30.05,SSW,198,2.0,10.0,82,0.00,,,0.00,VWS V14.01,2013-06-24 01:57:00,
2013-06-23 22:02:00,73.6,67.8,30.06,West,263,6.0,10.0,82,0.00,,,0.00,VWS V14.01,2013-06-24 02:02:00,
2013-06-23 22:07:00,73.5,67.7,30.06,West,267,2.0,6.0,82,0.00,,,0.00,VWS V14.01,2013-06-24 02:07:00,
2013-06-23 22:12:00,73.4,67.9,30.06,NW,311,1.0,6.0,83,0.00,,,0.00,VWS V14.01,2013-06-24 02:12:00,
2013-06-23 22:17:00,73.3,67.8,30.06,WSW,257,4.0,6.0,83,0.00,,,0.00,VWS V14.01,2013-06-24 02:17:00,
2013-06-23 22:22:00,73.3,67.8,30.06,NW,323,1.0,7.0,83,0.00,,,0.00,VWS V14.01,2013-06-24 02:22:00,
2013-06-23 22:27:00,73.2,67.7,30.06,West,271,1.0,7.0,83,0.00,,,0.00,VWS V14.01,2013-06-24 02:27:00,
2013-06-23 22:32:00,73.1,67.6,30.06,West,259,0.0,7.0,83,0.00,,,0.00,VWS V14.01,2013-06-24 02:32:00,
2013-06-23 22:37:00,73.0,67.5,30.06,NNW,333,2.0,4.0,83,0.00,,,0.00,VWS V14.01,2013-06-24 02:37:00,
2013-06-23 22:42:00,72.8,67.3,30.06,NNW,329,0.0,5.0,83,0.00,,,0.00,VWS V14.01,2013-06-24 02:42:00,
2013-06-23 22:47:00,72.8,67.3,30.05,West,263,0.0,5.0,83,0.00,,,0.00,VWS V14.01,2013-06-24 02:47:00,
2013-06-23 22:52:00,72.6,67.5,30.05,WNW,284,2.0,5.0,84,0.00,,,0.00,VWS V14.01,2013-06-24 02:52:00,
2013-06-23 22:57:00,72.5,67.4,30.05,West,269,0.0,5.0,84,0.00,,,0.00,VWS V14.01,2013-06-24 02:57:00,
2013-06-23 23:02:00,72.2,67.1,30.05,ESE,118,1.0,5.0,84,0.00,,,0.00,VWS V14.01,2013-06-24 03:02:00,
2013-06-23 23:07:00,72.1,67.0,30.05,West,274,5.0,5.0,84,0.00,,,0.00,VWS V14.01,2013-06-24 03:07:00,
2013-06-23 23:12:00,72.1,67.0,30.05,West,269,1.0,8.0,84,0.00,,,0.00,VWS V14.01,2013-06-24 03:12:00,
2013-06-23 23:17:00,72.1,67.3,30.05,West,259,0.0,8.0,85,0.00,,,0.00,VWS V14.01,2013-06-24 03:17:00,
2013-06-23 23:22:00,72.0,67.2,30.04,West,265,0.0,8.0,85,0.00,,,0.00,VWS V14.01,2013-06-24 03:22:00,
2013-06-23 23:27:00,71.8,67.1,30.04,West,268,5.0,8.0,85,0.00,,,0.00,VWS V14.01,2013-06-24 03:27:00,
2013-06-23 23:32:00,71.6,66.9,30.04,WNW,295,3.0,8.0,85,0.00,,,0.00,VWS V14.01,2013-06-24 03:32:00,
2013-06-23 23:37:00,71.6,67.2,30.04,WNW,287,3.0,8.0,86,0.00,,,0.00,VWS V14.01,2013-06-24 03:37:00,
2013-06-23 23:42:00,71.4,67.0,30.03,West,267,2.0,8.0,86,0.00,,,0.00,VWS V14.01,2013-06-24 03:42:00,
2013-06-23 23:47:00,71.3,66.9,30.03,West,273,0.0,11.0,86,0.00,,,0.00,VWS V14.01,2013-06-24 03:47:00,
2013-06-23 23:52:00,71.3,66.9,30.03,West,259,8.0,11.0,86,0.00,,,0.00,VWS V14.01,2013-06-24 03:52:00,
2013-06-23 23:57:00,71.3,66.9,30.03,WSW,257,2.0,11.0,86,0.00,,,0.00,VWS V14.01,2013-06-24 03:57:00,